Regional Weather Roundup
Issued by NWS Mobile, AL

Home | Current Version | Previous Version | Text Only | Print | Product List | Glossary On
Versions: 1 2 3 4 5 6 7 8 9 10 11 12 13 14 15 16 17 18 19 20 21 22 23 24 25 26 27 28 29 30 31 32 33 34 35 36 37 38 39 40 41 42 43 44 45 46 47 48 49 50
000
ASUS44 KMOB 051117
RWRMOB
REGIONAL WEATHER ROUNDUP
NATIONAL WEATHER SERVICE MOBILE AL
600 AM CDT TUE MAY 05 2015

ALZ061>064-051200-
COASTAL ALABAMA


CITY           SKY/WX    TMP DP  RH WIND       PRES   REMARKS
MOBILE REG APT PTCLDY    60  59  96 NE7       30.20R
BROOKLEY FIELD CLEAR     65  62  90 NE6       30.21R
GULF SHORES    SUNNY     62  61  97 NE3       30.19S

$$

ALZ051>060-051200-
INTERIOR SOUTHWEST AND SOUTH CENTRAL ALABAMA


CITY           SKY/WX    TMP DP  RH WIND       PRES   REMARKS
ANDALUSIA/OPP  CLEAR     61  56  83 CALM      30.23S
EVERGREEN      CLEAR     53  51  93 CALM      30.24R
FLORALA        SUNNY     60  56  86 E5        30.25R
GREENVILLE     FAIR      57  52  83 CALM      30.24R

$$

FLZ001>006-051200-
WESTERN FLORIDA PANHANDLE


CITY           SKY/WX    TMP DP  RH WIND       PRES   REMARKS
CRESTVIEW      PTCLDY    56  54  93 CALM      30.23R
DESTIN         PTCLDY    67  61  81 E6        30.20R
DUKE FIELD     FAIR      54  52  92 NE3       30.20R
MARY ESTHER    PTCLDY    63  57  80 NE5       30.19R
MILTON         MOSUNNY   63  56  78 NE7       30.21R
PENSACOLA      PTCLDY    65  57  75 NE6       30.19S
NAS PENSACOLA  PTCLDY    64  60  87 NE6       30.19R
VALPARAISO     MOCLDY    65  58  77 E7        30.20S

$$

...MARINE OBSERVATIONS...

STATION/POSITION TIME  SKY/WX   TEMP    WIND        PRES    VSBY
                                AIR SEA DIR/SP/G
                 (UTC)          (F)     (DEG/KT/KT) (MB)    (MI)
PASCAGOULA       1000            67      70/  5/  6 1021.3R
PETIT BOIS ISL   1000            72     100/  7/  9 1021.8R
E DAUPHIN ISLAND 1100            70      70/ 11/ 12 1021.7R
MIDDLE BAY LIGHT 1000            69      80/ 10     1021.3S
USCG MOBILE BAY  1000            64 74   10/  3/  4 1021.3R
STATE DOCKS      1000            64 70              1022.1R
MEAHER PARK      1100            65      50/  4     1022.7R
FORT MORGAN      1000            71     110/ 10/ 12 1021.3R
12 S ORANGE BCH  1050            73 74   70/ 14/ 16 1021.2R
WVE H/P(F/S)=  4/ 7

PENSACOLA BAY    1000            70 76   40/  4/  8 1022.4R
64 S DAUPHIN ISL 1050            75 75  100/ 17/ 21 1021.0R
WVE H/P(F/S)=  6/ 9

67 S FORT MORGAN 1030            74                 1020.7R
115 SE PENSACOLA 1050            73 75   90/ 16/ 19 1021.2R
WVE H/P(F/S)=  5/ 6

MID GULF/42001   1050            78 79  100/ 19/ 23 1016.9R
WVE H/P(F/S)=  7/ 9

EAST GULF/42003  1050            77 80   80/ 19/ 23 1018.0R
WVE H/P(F/S)=  5/ 8


$$

...NEARBY LOCATIONS

CITY           SKY/WX    TMP DP  RH WIND       PRES   REMARKS
GULFPORT       CLEAR     64  60  87 NE3       30.17R
BILOXI         CLEAR     64  63  96 NE5       30.17R
PASCAGOULA     CLEAR     60  60 100 CALM      30.18R
HATTIESBURG    CLEAR     56  54  93 CALM      30.20R
LAUREL         CLEAR     57  54  88 N3        30.21R
MERIDIAN       CLEAR     53  51  93 CALM      30.22R
MERIDIAN NAS   CLEAR     53  51  93 CALM      30.23R
MONTGOMERY     CLEAR     59  54  83 CALM      30.26R
MAXWELL AFB    CLEAR     60  56  88 NE3       30.26R
TROY           CLEAR     59  54  83 CALM      30.27R
FORT RUCKER    CLEAR     56  53  90 CALM      30.24R
DALEVILLE      CLEAR     58  55  87 NE7       30.24R
DOTHAN         CLEAR     59  55  87 NE5       30.28R

$$

...OTHER SURROUNDING LOCATIONS...

CITY           SKY/WX    TMP DP  RH WIND       PRES   REMARKS
BIRMINGHAM     CLEAR     63  54  72 E5        30.30R
TUSCALOOSA     CLEAR     57  54  89 N3        30.25R FOG
COLUMBUS GA    CLEAR     59  54  83 CALM      30.28R
PANAMA CITY    NOT AVBL
TALLAHASSEE    CLEAR     64  58  80 CALM      30.22R
BATON ROUGE    CLEAR     63  61  93 E6        30.13S
NEW ORLEANS    CLEAR     70  62  76 E6        30.14R
SLIDELL        CLEAR     57  57 100 CALM      30.15S
JACKSON        CLEAR     61  58  90 E3        30.20R
MCCOMB         CLEAR     62  60  93 E5        30.17R

$$

...SURROUNDING MARINE OBSERVATIONS...

STATION/POSITION TIME  SKY/WX   TEMP    WIND        PRES    VSBY
                                AIR SEA DIR/SP/G
                 (UTC)          (F)     (DEG/KT/KT) (MB)    (MI)
WAVELAND         1000            73 73   50/ 10/ 11 1021.0R
PASCAGOULA RGN A 1000            69      80/  7/ 13 1021.1R
PASCAGOULA PORT  1000               78                N/A
GRAND ISLE       1000            73 76  110/  8/ 15 1019.7R
SOUTHWEST PASS   1100            75     110/ 19/ 21 1020.1R
PILOT STATION E  1000            74 66  100/ 18/ 22 1020.2R
SHELL BEACH      1000            72 75  110/  9/ 11 1019.9S
PANAMA CITY      1000            65 76   70/  7/ 11 1021.7R
APALACHICOLA     1000            67 70   40/  5/  8 1021.7R
TYNDALL TOWER C  1100            71      80/ 19/ 19 1022.0R
S APLCHCLA/42036 1050            74 74   90/ 16/ 17 1020.9R
WVE H/P(F/S)=  5/ 6


$$




USA.gov is the U.S. government's official web portal to all federal, state and local government web resources and services.